Location: Degersen
(52.2871°N, 9.5716°E)
Time: 00:02:21
(UTC+00:00)

Cosmos 468 Rocket - Pass Details

Date: 20 January 2026
Orbit: 740 x 774 km, 74.0° (Epoch: 18 February)

Event Time Altitude Azimuth Distance (km) Brightness Sun altitude
Exits shadow 05:54:38 11° 325° (NW) 2,228 5.9 -12.5°
Maximum altitude 05:59:23 45° 254° (WSW) 1,012 4.3 -11.8°
Drops below altitude 10° 06:04:16 10° 182° (S) 2,272 6.7 -11.1°
Sets 06:06:43 0° 176° (S) 3,198 7.5 -10.8°
